CZ-6A DEB, 55554

Orbit data source: Space-Track

CZ-6A DEB, 55554 is space debris in SSO originally from a launch on Fri, 11 Nov 2022 UTC launched from the Taiyaun Space Center, China (TSC). Debris objects in space refer to the collection of defunct objects orbiting the Earth. Examples of debris include non-operational satellites, rocket bodies, and fragments generated from explosions, collisions, or faulty payload assembly.

Loading next visibility...
Identifier
55554, 2022-151ZC
Orbit
SSO
Country
Flag of CNCN / PRC
Related business
Manufacturer
SAST
Mission
Spacecraft
Bus & Motor
Unknown
Mass
Unknown
Launch date (UTC)
2022-11-11 (3 years ago)
Launch vehicle
Unknown
Launch site
Taiyaun Space Center, China (TSC)
Object type
Payload
Rocket body
Debris
Shape & HBR
Unknown shape, 0.1 m
Radar Cross Section
Small (<0.1 m²)

Expand to show TLE details & history
Last TLE update: 19 hours ago

TLE from 19 hours ago
0 CZ-6A DEB
1 55554U 22151ZC  25353.44147635  .00002070  00000-0  10804-2 0  9991
2 55554  98.8089 346.3705 0057798 117.7288 242.9764 14.14709749159438
Epoch: 2025-12-19T10:35Z
TLE epoch observation values (Epoch: 2025-12-19T10:35:43.556Z)
Latitude
-0.00004°
Longitude
99.15644°
Altitude
865.363 km
Speed
7.41 km/s
True Right ascension
23h 05m 28s
True Declination
0° 00' 00"
Sunlit
Object was in daylight at epoch
Visualization orbit readout
Latitude
Unknown
Longitude
Unknown
Altitude
Unknown
Speed
Unknown
Apparent Right ascension
Unknown
Apparent Declination
Unknown
Sunlit
N/A
Visualization observer readout
Local Sidereal Time
04:49:43
Azimuth
Unknown
Elevation
Unknown
Doppler factor
Unknown
Orbital elements
Apogee altitude
882.192 km
Perigee altitude
798.748 km
Semi-major axis
7,218.607 km
Eccentricity
0.00578
Inclination
98.8089°
RAAN
346.3705°
Arg. of periapsis
117.7288°
True anomaly
242.38834°
Mean anomaly
242.9764°
Eccentric anomaly
242.68217°
Mean motion
3.53886 °/min
Orbital period
101.73 mins
BSTAR
0.0010804
Loading maneuver chart data...
Computing Atmospheric mass density...
Loading historical data...
Loading historical data...
Loading historical data...
Loading historical data...
Loading historical data...
Loading historical data...
Loading historical data...

Documentation

Showing up to 5 results
|